International Virtual Aviation Organisation

Russian Federation and Kazakhstan MCD

 

Карточка аэропорта USTR

Внимание!
Информация на этой странице в стадии наполнения.
Если вы не увидели какой-то информации, или заметили неточность - пожалуйста сообщите нам!
Спасибо!
Команда RU-STAFF
Название аэропортаРощино
Название аэропорта (англ.)Roshschino
Превышение378 ft. (115.2 m.)
Координаты57°10.098', 65°19.002'
Высота перехода700m
Эшелон переходаFL040
Коды ответчика5101-5137
Зона ОрВДТюмень РПИ (USTV)
Данные METARUSTR 080230Z 24003MPS 9999 OVC015 01/M02 Q1014 R21/190063 R30/190063 TEMPO 3100 -DZ OVC005 RMK QFE751/1002
Проноз погоды (TAF)USTR 080148Z 0803/0903 24006G14MPS 6000 -SN BLSN OVC011 TEMPO 0803/0806 3100 -SN -FZDZ SCT005 OVC011 FM080600 21005G12MPS 9999 SCT020
NOTAMshow/hide NOTAM
AWOS   TABLE

Информация о ВПП

ВПП Длина ВПП (м.) Покрытие Курс ВПП Частота ILS
033003Асфальтобетон34108.3
213003Асфальтобетон214110.7
122704Асфальтобетон121 
302704Асфальтобетон301 

Диспетчерские позиции

Позывной Наименование органа УВД Частота
USTR_GNDТюмень-Руление119.000
USTR_TWRТюмень-Старт118.200
USTR_APPТюмень-Подход126.100



Спутниковое изображение